Location: Unspecified
(41.1637°N, 0.0000°E)
Time: 23:59:32
(UTC+00:00)

OTV 5 (USA 277) - Visible Passes

Search period start: 26 June 2019 00:00
Search period end: 06 July 2019 00:00
Orbit: 301 x 333 km, 54.5° (Epoch: 26 June)

Date Brightness Start Highest point End Pass type
(mag) Time Alt. Az. Time Alt. Az. Time Alt. Az.
26 Jun ? 00:43:50 10° N 00:45:10 13° NNE 00:46:29 10° NE visible
26 Jun ? 02:17:05 10° NW 02:19:12 47° NW 02:19:12 47° NW visible
26 Jun ? 20:11:43 10° W 20:13:55 20° NNW 20:16:07 10° NNE visible
27 Jun ? 00:57:42 10° NNW 00:59:32 21° NNE 00:59:32 21° NNE visible
27 Jun ? 20:27:38 10° NW 20:28:46 12° NNW 20:29:54 10° N visible
28 Jun ? 01:11:56 10° NW 01:12:03 11° NW 01:12:03 11° NW visible
28 Jun ? 23:52:47 10° NNW 23:54:13 16° NNE 23:54:13 16° NNE visible
30 Jun ? 00:06:52 10° NNW 00:07:25 14° NNW 00:07:25 14° NNW visible
30 Jun ? 22:47:58 10° N 22:49:20 13° NNE 22:49:56 12° NE visible
01 Jul ? 23:01:51 10° NNW 23:03:23 20° N 23:03:23 20° N visible
02 Jul ? 21:43:49 10° NNE 21:43:57 10° NNE 21:44:04 10° NNE visible
02 Jul ? 23:16:05 10° NW 23:16:55 17° NW 23:16:55 17° NW visible
03 Jul ? 21:56:55 10° NNW 21:58:50 16° NNE 21:59:38 15° NE visible
04 Jul ? 22:11:00 10° NNW 22:13:17 30° NNE 22:13:17 30° NNE visible
05 Jul ? 20:52:08 10° N 20:53:29 13° NNE 20:54:50 10° NE visible
05 Jul ? 22:25:23 10° NW 22:26:58 29° NW 22:26:58 29° NW visible
